Live Position
Loading 3D Globe...
About Flock 4q-27
Group: 3 satellites
Description loading...
Upcoming Passes
Passes for default location (London). Set your location on the main map for personalized predictions.
Altitude History
Loading altitude history...
No altitude history available
Two-Line Element Set
1 58282U 23174AC 26104.83952803 .00015630 00000-0 26778-3 0 9991
2 58282 97.3821 193.6503 0004402 27.6799 332.4686 15.51301083135923
Epoch: Apr 14, 2026 •
Age: 7 hours
Current Status
Altitude 425.2 km
Velocity 7.66 km/s
Sub-Earth Point 82.07°N,
162.75°W
Launch Date Nov 11, 2023
Age 2.4 years
Type earth observation
Technical Details
Classification Payload
Mass 5.70 kg
Dry Mass 5.70 kg
Total Mass 5.70 kg
Length 0.30 m
Diameter 0.10 m
Span 0.30 m
Shape Box+2 pan
Manufacturer PLAN
Bus Type Cubesat 3U
Phase Status In Orbit
Owner/State PLAN/US
Most Searched
Loading...